Weather History for Darlington, SC

Change the Weather History Date:

Thursday, August 1, 2013

  Actual Average (KFLO) Record (KFLO)
Temperature  
Mean Temperature 80 °F 81 °F  
Max Temperature 86 °F 91 °F 106 °F (1980)
Min Temperature 73 °F 71 °F 61 °F (1966)
Degree Days  
Heating Degree Days 0 0  
Month to date heating degree days 0  
Since 1 June heating degree days 1  
Since 1 July heating degree days 0  
Cooling Degree Days 14 16  
Month to date cooling degree days 16  
Year to date cooling degree days 1222  
Since 1 June cooling degree days 915  
Growing Degree Days 30 (Base 50)    
Moisture  
Dew Point 71 °F    
Average Humidity 79    
Maximum Humidity 88    
Minimum Humidity 62    
Precipitation  
Precipitation 0.03 in 0.18 in 2.65 in (1965)
Month to date precipitation 0.18  
Year to date precipitation 25.42  
Sea Level Pressure  
Sea Level Pressure 29.97 in    
Wind  
Wind Speed 5 mph (SSW)    
Max Wind Speed 10 mph    
Max Gust Speed -    
Visibility 9 miles    
Events      
T = Trace of Precipitation, MM = Missing Value Source: NWS Daily Summary

Daily Weather History Graph

Daily Weather History Graph

Search for Another Location

Airport:

Trip Planner

Search our weather history database for the weather conditions in past years. The results will help you decide how hot, cold, wet, or windy it might be!

Date:

Astronomy

Aug. 01, 2013 Rise Set
Actual Time 6:30 AM EDT 8:20 PM EDT
Civil Twilight 6:02 AM EDT 8:48 PM EDT
Nautical Twilight 5:29 AM EDT 9:21 PM EDT
Astronomical Twilight 4:53 AM EDT 9:57 PM EDT
Moon 2:06 AM EDT (8/1) 4:26 PM EDT (8/1)
Length of Visible Light 14h 45m
Length of Day
13h 50m
Waning Crescent, 23% of the Moon is Illuminated
Aug 1
Waning Crescent
Aug 6
New
Aug 14
First Quarter
Aug 20
Full
Aug 28
Last Quarter

Hourly Weather History & Observations

Time (EDT) Temp. Heat Index Dew Point Humidity Pressure Visibility Wind Dir Wind Speed Gust Speed Precip Events Conditions
12:15 AM 73.4 °F - 69.8 °F 88% 30.03 in 8.0 mi South 4.6 mph - N/A   Partly Cloudy
12:35 AM 73.4 °F - 69.8 °F 88% 30.03 in 8.0 mi SE 4.6 mph - N/A   Clear
12:55 AM 73.4 °F - 69.8 °F 88% 30.03 in 7.0 mi SE 4.6 mph - N/A   Clear
1:15 AM 73.4 °F - 68.0 °F 83% 30.02 in 6.0 mi Calm Calm - N/A   Scattered Clouds
1:35 AM 73.4 °F - 68.0 °F 83% 30.01 in 7.0 mi ESE 3.5 mph - N/A   Overcast
1:55 AM 73.4 °F - 69.8 °F 88% 30.01 in 7.0 mi SE 5.8 mph - N/A   Overcast
2:15 AM 73.4 °F - 69.8 °F 88% 30.01 in 9.0 mi SSE 3.5 mph - N/A   Overcast
2:35 AM 73.4 °F - 68.0 °F 83% 30.00 in 8.0 mi ESE 3.5 mph - N/A   Overcast
2:55 AM 73.4 °F - 68.0 °F 83% 30.00 in 8.0 mi Calm Calm - N/A   Overcast
3:15 AM 73.4 °F - 69.8 °F 88% 29.99 in 5.0 mi Calm Calm - N/A   Overcast
3:35 AM 73.4 °F - 69.8 °F 88% 29.99 in 7.0 mi SSW 4.6 mph - N/A   Overcast
3:55 AM 73.4 °F - 69.8 °F 88% 29.99 in 8.0 mi SSW 4.6 mph - N/A   Overcast
4:15 AM 73.4 °F - 69.8 °F 88% 29.98 in 10.0 mi SSW 5.8 mph - N/A   Overcast
4:35 AM 73.4 °F - 69.8 °F 88% 29.97 in 10.0 mi SSW 4.6 mph - N/A   Overcast
4:55 AM 73.4 °F - 68.0 °F 83% 29.97 in 9.0 mi SW 3.5 mph - N/A   Mostly Cloudy
5:15 AM 73.4 °F - 68.0 °F 83% 29.97 in 8.0 mi SW 4.6 mph - N/A   Mostly Cloudy
5:35 AM 73.4 °F - 68.0 °F 83% 29.96 in 7.0 mi SSW 4.6 mph - N/A   Overcast
5:55 AM 73.4 °F - 68.0 °F 83% 29.97 in 9.0 mi SW 3.5 mph - N/A   Overcast
6:15 AM 73.4 °F - 69.8 °F 88% 29.97 in 10.0 mi SW 3.5 mph - N/A   Overcast
6:35 AM 73.4 °F - 69.8 °F 88% 29.98 in 7.0 mi South 3.5 mph - N/A   Mostly Cloudy
6:55 AM 73.4 °F - 69.8 °F 88% 29.98 in 7.0 mi South 5.8 mph - N/A   Mostly Cloudy
7:15 AM 73.4 °F - 69.8 °F 88% 29.98 in 7.0 mi South 5.8 mph - N/A   Overcast
7:35 AM 73.4 °F - 69.8 °F 88% 29.99 in 7.0 mi South 4.6 mph - N/A   Overcast
7:55 AM 73.4 °F - 69.8 °F 88% 29.99 in 9.0 mi SSW 3.5 mph - N/A   Overcast
8:15 AM 73.4 °F - 69.8 °F 88% 29.99 in 10.0 mi SSW 5.8 mph - N/A   Overcast
8:35 AM 75.2 °F - 69.8 °F 83% 29.99 in 10.0 mi SSW 6.9 mph - N/A   Overcast
8:55 AM 75.2 °F - 69.8 °F 83% 30.00 in 10.0 mi SSW 6.9 mph - N/A   Overcast
9:15 AM 75.2 °F - 69.8 °F 83% 30.00 in 10.0 mi SW 6.9 mph - N/A   Overcast
9:35 AM 75.2 °F - 69.8 °F 83% 30.00 in 10.0 mi SSW 5.8 mph - N/A   Overcast
9:55 AM 75.2 °F - 69.8 °F 83% 29.99 in 10.0 mi WSW 5.8 mph - N/A   Mostly Cloudy
10:15 AM 75.2 °F - 69.8 °F 83% 29.99 in 10.0 mi SW 5.8 mph - N/A   Overcast
10:35 AM 75.2 °F - 69.8 °F 83% 29.98 in 10.0 mi SSW 5.8 mph - N/A   Overcast
10:55 AM 77.0 °F - 71.6 °F 83% 29.98 in 10.0 mi SW 5.8 mph - N/A   Overcast
11:15 AM 78.8 °F - 71.6 °F 78% 29.98 in 10.0 mi SSW 8.1 mph - N/A   Overcast
11:35 AM 78.8 °F - 71.6 °F 78% 29.98 in 10.0 mi SSW 6.9 mph - N/A   Overcast
11:55 AM 78.8 °F - 71.6 °F 78% 29.98 in 10.0 mi SSW 9.2 mph - N/A   Overcast
12:15 PM 78.8 °F - 71.6 °F 78% 29.98 in 10.0 mi SW 6.9 mph - N/A   Overcast
12:35 PM 78.8 °F - 71.6 °F 78% 29.98 in 10.0 mi SSW 5.8 mph - N/A   Overcast
12:55 PM 80.6 °F 84.6 °F 71.6 °F 74% 29.97 in 10.0 mi WSW 9.2 mph - N/A   Overcast
1:15 PM 80.6 °F 84.6 °F 71.6 °F 74% 29.97 in 10.0 mi WSW 8.1 mph - N/A   Overcast
1:35 PM 80.6 °F 84.6 °F 71.6 °F 74% 29.97 in 10.0 mi WSW 6.9 mph - N/A   Overcast
1:55 PM 82.4 °F 87.2 °F 71.6 °F 70% 29.96 in 10.0 mi SSW 5.8 mph - N/A   Overcast
2:15 PM 82.4 °F 87.2 °F 71.6 °F 70% 29.95 in 10.0 mi SSW 6.9 mph - N/A   Mostly Cloudy
2:35 PM 82.4 °F 88.2 °F 73.4 °F 74% 29.95 in 10.0 mi SW 8.1 mph - N/A   Mostly Cloudy
2:55 PM 84.2 °F 90.9 °F 73.4 °F 70% 29.94 in 10.0 mi South 6.9 mph - N/A   Mostly Cloudy
3:15 PM 84.2 °F 89.6 °F 71.6 °F 66% 29.94 in 10.0 mi SW 6.9 mph - N/A   Mostly Cloudy
3:35 PM 84.2 °F 89.6 °F 71.6 °F 66% 29.93 in 10.0 mi SSW 5.8 mph - N/A   Partly Cloudy
3:55 PM 84.2 °F 89.6 °F 71.6 °F 66% 29.93 in 10.0 mi SSW 8.1 mph - N/A   Scattered Clouds
4:15 PM 86.0 °F 91.8 °F 71.6 °F 62% 29.92 in 10.0 mi SW 9.2 mph - N/A   Mostly Cloudy
4:35 PM 84.2 °F 89.6 °F 71.6 °F 66% 29.92 in 10.0 mi SSW 6.9 mph - N/A   Mostly Cloudy
4:55 PM 84.2 °F 89.6 °F 71.6 °F 66% 29.92 in 10.0 mi SSW 6.9 mph - N/A   Mostly Cloudy
5:15 PM 86.0 °F 91.8 °F 71.6 °F 62% 29.92 in 10.0 mi South 10.4 mph - N/A   Scattered Clouds
5:35 PM 86.0 °F 91.8 °F 71.6 °F 62% 29.92 in 10.0 mi South 10.4 mph - N/A   Partly Cloudy
5:55 PM 84.2 °F 89.6 °F 71.6 °F 66% 29.92 in 10.0 mi South 9.2 mph - N/A   Clear
6:15 PM 84.2 °F 90.9 °F 73.4 °F 70% 29.92 in 10.0 mi South 9.2 mph - N/A   Clear
6:35 PM 82.4 °F 88.2 °F 73.4 °F 74% 29.92 in 10.0 mi South 9.2 mph - N/A   Partly Cloudy
6:55 PM 82.4 °F 88.2 °F 73.4 °F 74% 29.93 in 10.0 mi South 8.1 mph - N/A   Partly Cloudy
7:15 PM 80.6 °F 84.6 °F 71.6 °F 74% 29.93 in 10.0 mi South 6.9 mph - N/A   Clear
7:35 PM 80.6 °F 84.6 °F 71.6 °F 74% 29.94 in 10.0 mi South 8.1 mph - N/A   Clear
7:55 PM 80.6 °F 84.6 °F 71.6 °F 74% 29.96 in 10.0 mi South 8.1 mph - N/A   Clear
8:15 PM 80.6 °F 84.6 °F 71.6 °F 74% 29.97 in 10.0 mi SSW 9.2 mph - N/A   Partly Cloudy
8:35 PM 80.6 °F 84.6 °F 71.6 °F 74% 29.96 in 10.0 mi SSW 8.1 mph - N/A   Partly Cloudy
8:55 PM 78.8 °F - 71.6 °F 78% 29.95 in 10.0 mi SSW 9.2 mph - N/A   Clear
9:15 PM 78.8 °F - 71.6 °F 78% 29.95 in 10.0 mi South 6.9 mph - N/A   Partly Cloudy
9:35 PM 78.8 °F - 71.6 °F 78% 29.96 in 10.0 mi SSW 5.8 mph - N/A   Partly Cloudy
9:55 PM 78.8 °F - 71.6 °F 78% 29.96 in 10.0 mi SSW 6.9 mph - N/A   Partly Cloudy
10:15 PM 78.8 °F - 71.6 °F 78% 29.96 in 10.0 mi South 5.8 mph - N/A   Clear
10:35 PM 77.0 °F - 71.6 °F 83% 29.96 in 9.0 mi SSW 4.6 mph - N/A   Clear
10:55 PM 77.0 °F - 71.6 °F 83% 29.96 in 8.0 mi South 4.6 mph - N/A   Clear
11:15 PM 77.0 °F - 71.6 °F 83% 29.97 in 8.0 mi SSW 5.8 mph - N/A   Clear
11:35 PM 77.0 °F - 71.6 °F 83% 29.97 in 6.0 mi South 5.8 mph - N/A   Clear
11:55 PM 77.0 °F - 71.6 °F 83% 29.97 in 8.0 mi SSW 6.9 mph - N/A   Clear